Погода в Бельске

Россия / Иркутская область     52°52′21″N   103°04′40″E
темп.,
°C
ветер,
м/с
пор.,
м/с
влажн.,
%
обл.,
%
осадки,
мм/ч
давл.,
гПа
погр.,
м
19 мая, ср
ср1923:00+10ссв2470100 0.0 1002145
02:00+8с2688100 0.4 1004475
05:00+7з2694100 0.7 1005408
08:00+8зсз3486100 0.9 1006505
11:00+8з3479100 0.6 1006789
14:00+13юз1152100 0.8 10031441
17:00+14з0145100 0.0 10021576
20:00+12ююз0056100 0.0 100110
20 мая, чт
чт2023:00+10ююв1167100 0.0 100019
02:00+8в246899 0.0 998163
05:00+7с127099 0.0 99886
08:00+8ссв3572100 0.0 1000623
11:00+7сз2284100 1.3 1002424
14:00+6сз3593100 4.3 1003458
17:00+6зсз2390100 2.6 1003902
20:00+5зсз3395100 7.0 1002580
21 мая, пт
пт2123:00+5сз3896100 7.6 1004494
02:00+5зсз3695100 10.8 1004388
05:00+4з2594100 1.3 1005275
08:00+5зсз5991100 1.4 1006774
11:00+7сз6971100 0.4 10081405
14:00+7сз71063100 0.6 10101589
17:00+8зсз6951100 0.1 10121898
20:00+6з51055100 0.1 1014685
22 мая, сб
сб2223:00+5з51263100 0.0 1015455
02:00+4зсз41469100 0.0 1016497
05:00+4зсз51270100 0.0 1017531
08:00+6сз61264100 0.0 1019857
11:00+10сз6848100 0.2 10191422
14:00+11сз7943100 0.4 10192204
17:00+10сз61061100 1.0 10191660
20:00+7зсз41077100 2.9 1021704
23 мая, вс
вс2323:00+5зсз51387100 0.7 1023498
02:00+5зсз41285100 1.0 1024578
05:00+3з3129183 0.1 1025412
08:00+6зсз41181100 0.4 1025721
11:00+8зсз5770100 0.6 10241209
14:00+12сз5748100 0.8 10211902
17:00+11сз5760100 0.2 10211439
20:00+7сз3786100 0.7 10221059